Tracking 20376 objects as of 20-Feb-2020
HD Live streaming from Space Station
objects crossing your sky now
Track the group of recently launched Starlink satellites

LEMUR 2 DAVEWILSON

Track LEMUR 2 DAVEWILSON now!
10-day predictions
LEMUR 2 DAVEWILSON is classified as:


NORAD ID: 43126
Int'l Code: 2018-004R
Perigee: 489.9 km
Apogee: 505.2 km
Inclination: 97.5 °
Period: 94.4 minutes
Semi major axis: 6868 km
RCS: Unknown
Launch date: January 12, 2018
Source: United States (US)
Launch site: SRIHARIKOTA (SRI)
aabbcc
Your satellite tracking list
Your tracking list is empty




NASA's NSSDC Master Catalog

Two Line Element Set (TLE):
1 43126U 18004R   20050.85581789 +.00002963 +00000-0 +12108-3 0  9992
2 43126 097.4629 123.4994 0011147 106.2079 254.0386 15.25115168117020
Source of the keplerian elements: AFSPC